Sharm El Sheikh, Egypt

10:54 AM EET on April 26, 2017 (GMT +0200)
Sharm El Sheikh

Weather History for HESH - October, 2012

Change the Weather History Date:

Friday, October 26, 2012

  Actual Average Record
Temperature  
Mean Temperature 82 °F -  
Max Temperature 91 °F 82 °F - ()
Min Temperature 73 °F 66 °F - ()
Cooling Degree Days 17    
Growing Degree Days 32 (Base 50)    
Moisture  
Dew Point 54 °F    
Average Humidity 42    
Maximum Humidity 57    
Minimum Humidity 23    
Precipitation  
Precipitation 0.00 in 0.00 in - ()
Sea Level Pressure  
Sea Level Pressure 29.84 in    
Wind  
Wind Speed 5 mph ()    
Max Wind Speed 12 mph    
Max Gust Speed -    
T = Trace of Precipitation, MM = Missing Value Source: Averaged Metar Reports

Daily Weather History Graph

Daily Weather History Graph

Search for Another Location

Airport or City:

Trip Planner

Search our weather history database for the weather conditions in past years. The results will help you decide how hot, cold, wet, or windy it might be!

Date:

Astronomy

Oct. 26, 2012 Rise Set
Actual Time 5:49 AM EET 5:02 PM EET
Civil Twilight 5:25 AM EET 5:26 PM EET
Nautical Twilight 4:58 AM EET 5:54 PM EET
Astronomical Twilight 4:30 AM EET 6:21 PM EET
Moon 2:56 PM EET 2:40 AM EET
Length of Visible Light 12h 00m
Length of Day
11h 13m
Waxing Gibbous, 89% of the Moon is Illuminated
Oct 26
Waxing Gibbous
Oct 29
Full
Nov 7
Last Quarter
Nov 14
New
Nov 20
First Quarter

Hourly Weather History & Observations

Time (EET) Temp. Heat Index Dew Point Humidity Pressure Visibility Wind Dir Wind Speed Gust Speed Precip Events Conditions
12:00 AM 75.2 °F - 48.2 °F 38% 29.83 in - NW 3.5 mph - N/A   Clear
1:00 AM 75.2 °F - 51.8 °F 44% 29.83 in - WNW 2.3 mph - N/A   Clear
2:00 AM 73.4 °F - 37.4 °F 27% 29.83 in - North 2.3 mph - N/A   Clear
3:00 AM 75.2 °F - 55.4 °F 50% 29.83 in - NNW 5.8 mph - N/A   Clear
4:00 AM 73.4 °F - 55.4 °F 53% 29.83 in - Calm Calm - N/A   Clear
5:00 AM 73.4 °F - 57.2 °F 57% 29.83 in - NNW 5.8 mph - N/A   Clear
6:00 AM 73.4 °F - 55.4 °F 53% 29.86 in - North 4.6 mph - N/A   Clear
7:00 AM 75.2 °F - 59.0 °F 57% 29.86 in - North 8.1 mph - N/A   Clear
8:00 AM 80.6 °F 81.1 °F 59.0 °F 48% 29.89 in - North 10.4 mph - N/A   Clear
9:00 AM 84.2 °F 83.5 °F 57.2 °F 40% 29.89 in - NNE 9.2 mph - N/A   Clear
10:00 AM 87.8 °F 85.7 °F 53.6 °F 31% 29.89 in - NNE 5.8 mph - N/A   Clear
11:00 AM 89.6 °F 87.3 °F 53.6 °F 29% 29.86 in - NE 8.1 mph - N/A   Clear
12:00 PM 91.4 °F - 50.0 °F 24% 29.83 in - NE 5.8 mph - N/A   Clear
1:00 PM 91.4 °F - 51.8 °F 26% 29.83 in - South 6.9 mph - N/A   Clear
2:00 PM 87.8 °F 86.1 °F 55.4 °F 33% 29.80 in - SSE 10.4 mph - N/A   Clear
3:00 PM 91.4 °F - 48.2 °F 23% 29.77 in - Variable 2.3 mph - N/A   Clear
4:00 PM 87.8 °F 86.5 °F 57.2 °F 35% 29.77 in - North 11.5 mph - N/A   Clear
5:00 PM 82.4 °F 81.7 °F 55.4 °F 39% 29.80 in - North 11.5 mph - N/A   Clear
6:00 PM 80.6 °F 80.5 °F 55.4 °F 42% 29.77 in - North 6.9 mph - N/A   Clear
7:00 PM 78.8 °F - 55.4 °F 44% 29.83 in - North 6.9 mph - N/A   Clear
8:00 PM 77.0 °F - 57.2 °F 50% 29.86 in - North 5.8 mph - N/A   Clear
9:00 PM 77.0 °F - 57.2 °F 50% 29.86 in - North 3.5 mph - N/A   Clear
10:00 PM 75.2 °F - 57.2 °F 53% 29.86 in - North 5.8 mph - N/A   Clear
11:00 PM 75.2 °F - 59.0 °F 57% 29.86 in - North 6.9 mph - N/A   Clear